Location: Jackson Park
(37.2862°N, 79.9123°W)
Time: 20:38:14
(UTC+00:00)

Transit 4A - Pass Details

Date: 12 May 2026
Orbit: 860 x 980 km, 66.8° (Epoch: 9 June)

Event Time Altitude Azimuth Distance (km) Brightness Sun altitude
Rises 20:42:11 0° 347° (NNW) 3,682 11.1 41.3°
Reaches altitude 10° 20:47:26 10° 23° (NNE) 2,737 10.2 40.3°
Maximum altitude 20:48:58 11° 37° (NE) 2,676 10.1 40.0°
Drops below altitude 10° 20:50:28 10° 51° (NE) 2,734 10.1 39.7°
Sets 20:55:41 0° 87° (E) 3,666 10.5 38.6°
